When you browse on this site, cookies collect data to enhance your experience and personalize the content and advertising you see.
Visit our Privacy Policy to learn more. By continuing to use the site, you agree to this use of cookies and data.
  • In Latvia
  • List of Countries
  • For 7 days
  • Water Temperature
  • Satellite Maps
  • Weather Map
  • Weather Widgets
  • user-avatar
    Login

    Hourly Weather Barisal

    Today, 19 June, Wednesday

    Time Temperature Precipitation Wind Pressure Humidity
    00:00 +32°C° 0 mm 2 mps 750 mmHg 80%
    01:00 +31°C° 0.4 mm 2 mps 749 mmHg 82%
    02:00 +31°C° 0.4 mm 2 mps 749 mmHg 83%
    03:00 +31°C° 0.4 mm 2 mps 749 mmHg 84%
    04:00 +31°C° 0.3 mm 1 mps 749 mmHg 83%
    05:00 +31°C° 0.3 mm 1 mps 749 mmHg 83%
    06:00 +31°C° 0 mm 1 mps 749 mmHg 79%
    07:00 +33°C° 0 mm 1 mps 749 mmHg 71%
    08:00 +35°C° 0 mm 2 mps 749 mmHg 64%
    09:00 +36°C° 0 mm 2 mps 749 mmHg 57%
    10:00 +38°C° 0 mm 3 mps 749 mmHg 53%
    11:00 +39°C° 0 mm 3 mps 749 mmHg 49%
    12:00 +40°C° 0 mm 3 mps 749 mmHg 40%
    13:00 +40°C° 0 mm 3 mps 749 mmHg 42%
    14:00 +41°C° 0 mm 4 mps 748 mmHg 43%
    15:00 +41°C° 0 mm 4 mps 748 mmHg 45%
    16:00 +38°C° 0 mm 4 mps 748 mmHg 51%
    17:00 +37°C° 0 mm 5 mps 747 mmHg 56%
    18:00 +35°C° 0 mm 5 mps 747 mmHg 62%
    19:00 +35°C° 0 mm 5 mps 748 mmHg 65%
    20:00 +34°C° 0 mm 4 mps 749 mmHg 69%
    21:00 +34°C° 0 mm 4 mps 749 mmHg 72%
    22:00 +34°C° 0 mm 4 mps 749 mmHg 72%
    23:00 +33°C° 0 mm 4 mps 750 mmHg 72%

    Tomorrow, 20 June, Thursday

    Time Temperature Precipitation Wind Pressure Humidity
    00:00 +33°C° 0 mm 4 mps 750 mmHg 73%
    01:00 +33°C° 0 mm 3 mps 750 mmHg 72%
    02:00 +33°C° 0 mm 3 mps 749 mmHg 72%
    03:00 +32°C° 0 mm 2 mps 749 mmHg 72%
    04:00 +32°C° 0 mm 2 mps 749 mmHg 73%
    05:00 +33°C° 0 mm 3 mps 749 mmHg 73%
    06:00 +33°C° 0 mm 3 mps 749 mmHg 74%
    07:00 +33°C° 0 mm 3 mps 750 mmHg 71%
    08:00 +34°C° 0 mm 4 mps 750 mmHg 68%
    09:00 +35°C° 0 mm 4 mps 751 mmHg 65%
    10:00 +35°C° 0 mm 4 mps 751 mmHg 62%
    11:00 +36°C° 0 mm 4 mps 751 mmHg 60%
    12:00 +36°C° 0 mm 4 mps 751 mmHg 57%
    13:00 +36°C° 0 mm 4 mps 750 mmHg 59%
    14:00 +35°C° 0 mm 3 mps 749 mmHg 61%
    15:00 +35°C° 0 mm 3 mps 748 mmHg 63%
    16:00 +35°C° 0 mm 3 mps 749 mmHg 63%
    17:00 +35°C° 0 mm 3 mps 749 mmHg 63%
    18:00 +35°C° 0 mm 3 mps 749 mmHg 63%
    19:00 +34°C° 0 mm 3 mps 749 mmHg 68%
    20:00 +33°C° 0 mm 3 mps 750 mmHg 73%
    21:00 +32°C° 0 mm 4 mps 751 mmHg 79%
    22:00 +32°C° 1.1 mm 4 mps 751 mmHg 80%
    23:00 +32°C° 1.1 mm 4 mps 751 mmHg 81%

    Day after tomorrow, 21 June, Friday

    Time Temperature Precipitation Wind Pressure Humidity
    00:00 +32°C° 1.1 mm 4 mps 751 mmHg 82%
    01:00 +31°C° 0.2 mm 3 mps 750 mmHg 82%
    02:00 +31°C° 0.2 mm 3 mps 750 mmHg 83%
    03:00 +31°C° 0.2 mm 2 mps 750 mmHg 83%
    04:00 +31°C° 0 mm 2 mps 750 mmHg 83%
    05:00 +31°C° 0 mm 2 mps 750 mmHg 82%
    06:00 +31°C° 0 mm 2 mps 750 mmHg 82%
    07:00 +33°C° 0.2 mm 3 mps 751 mmHg 75%
    08:00 +34°C° 0.2 mm 4 mps 751 mmHg 69%
    09:00 +36°C° 0.2 mm 4 mps 752 mmHg 63%
    10:00 +36°C° 0.2 mm 5 mps 751 mmHg 60%
    11:00 +37°C° 0.2 mm 5 mps 751 mmHg 58%
    12:00 +38°C° 0.2 mm 6 mps 750 mmHg 55%
    13:00 +38°C° 0.1 mm 6 mps 750 mmHg 56%
    14:00 +38°C° 0.1 mm 6 mps 750 mmHg 56%
    15:00 +38°C° 0.1 mm 6 mps 749 mmHg 56%
    16:00 +36°C° 0.1 mm 6 mps 749 mmHg 59%
    17:00 +36°C° 0.1 mm 5 mps 749 mmHg 62%
    18:00 +35°C° 0.1 mm 5 mps 749 mmHg 65%
    19:00 +34°C° 0 mm 5 mps 750 mmHg 68%
    20:00 +34°C° 0 mm 4 mps 750 mmHg 71%
    21:00 +33°C° 0 mm 4 mps 751 mmHg 73%
    22:00 +33°C° 0 mm 4 mps 751 mmHg 74%
    23:00 +33°C° 0 mm 4 mps 751 mmHg 76%

    22 June, Saturday

    Time Temperature Precipitation Wind Pressure Humidity
    00:00 +32°C° 0 mm 4 mps 751 mmHg 77%
    01:00 +32°C° 0.1 mm 4 mps 751 mmHg 78%
    02:00 +31°C° 0.1 mm 3 mps 751 mmHg 79%
    03:00 +31°C° 0.1 mm 3 mps 750 mmHg 79%
    04:00 +31°C° 0.3 mm 3 mps 750 mmHg 80%
    05:00 +31°C° 0.3 mm 3 mps 751 mmHg 80%
    06:00 +31°C° 0.3 mm 2 mps 751 mmHg 80%
    07:00 +33°C° 0.2 mm 3 mps 751 mmHg 73%
    08:00 +34°C° 0.2 mm 3 mps 751 mmHg 66%
    09:00 +36°C° 0.2 mm 3 mps 752 mmHg 60%
    10:00 +36°C° 0.1 mm 4 mps 751 mmHg 57%
    11:00 +37°C° 0.1 mm 4 mps 751 mmHg 55%
    12:00 +39°C° 0.1 mm 5 mps 751 mmHg 52%
    13:00 +39°C° 0.1 mm 5 mps 751 mmHg 53%
    14:00 +39°C° 0.1 mm 5 mps 750 mmHg 53%
    15:00 +39°C° 0.1 mm 6 mps 749 mmHg 54%
    16:00 +38°C° 0.1 mm 6 mps 749 mmHg 57%
    17:00 +36°C° 0.1 mm 5 mps 749 mmHg 61%
    18:00 +35°C° 0.1 mm 5 mps 749 mmHg 64%
    19:00 +34°C° 0 mm 5 mps 750 mmHg 68%
    20:00 +34°C° 0 mm 4 mps 750 mmHg 72%
    21:00 +33°C° 0 mm 4 mps 751 mmHg 75%
    22:00 +33°C° 0 mm 4 mps 751 mmHg 76%
    23:00 +32°C° 0 mm 4 mps 751 mmHg 77%

    23 June, Sunday

    Time Temperature Precipitation Wind Pressure Humidity
    00:00 +32°C° 0 mm 4 mps 751 mmHg 78%
    01:00 +31°C° 0 mm 3 mps 751 mmHg 79%
    02:00 +31°C° 0 mm 3 mps 750 mmHg 79%
    03:00 +31°C° 0 mm 3 mps 750 mmHg 80%
    04:00 +31°C° 0 mm 3 mps 750 mmHg 80%
    05:00 +31°C° 0 mm 3 mps 751 mmHg 80%
    06:00 +31°C° 0 mm 2 mps 751 mmHg 80%
    07:00 +32°C° 0 mm 2 mps 751 mmHg 73%
    08:00 +35°C° 0 mm 2 mps 751 mmHg 66%
    09:00 +36°C° 0 mm 3 mps 751 mmHg 59%
    10:00 +37°C° 0.1 mm 3 mps 751 mmHg 56%
    11:00 +38°C° 0.1 mm 4 mps 750 mmHg 54%
    12:00 +38°C° 0.1 mm 4 mps 750 mmHg 51%
    13:00 +39°C° 0 mm 5 mps 749 mmHg 51%
    14:00 +39°C° 0 mm 5 mps 749 mmHg 51%
    15:00 +39°C° 0 mm 5 mps 748 mmHg 52%
    16:00 +37°C° 0 mm 5 mps 748 mmHg 55%
    17:00 +36°C° 0 mm 6 mps 748 mmHg 57%
    18:00 +35°C° 0 mm 6 mps 748 mmHg 60%
    19:00 +35°C° 0 mm 5 mps 748 mmHg 64%
    20:00 +34°C° 0 mm 5 mps 749 mmHg 68%
    21:00 +33°C° 0 mm 4 mps 750 mmHg 72%
    22:00 +33°C° 0 mm 4 mps 750 mmHg 73%
    23:00 +33°C° 0 mm 4 mps 750 mmHg 74%

    24 June, Monday

    Time Temperature Precipitation Wind Pressure Humidity
    00:00 +33°C° 0 mm 4 mps 750 mmHg 75%
    01:00 +31°C° 0 mm 3 mps 750 mmHg 76%
    02:00 +31°C° 0 mm 3 mps 750 mmHg 77%
    03:00 +31°C° 0 mm 2 mps 749 mmHg 78%
    04:00 +31°C° 0 mm 2 mps 750 mmHg 79%
    05:00 +31°C° 0 mm 3 mps 750 mmHg 79%
    06:00 +31°C° 0 mm 3 mps 750 mmHg 79%
    07:00 +34°C° 0 mm 3 mps 750 mmHg 71%
    08:00 +35°C° 0 mm 4 mps 750 mmHg 63%
    09:00 +37°C° 0 mm 4 mps 751 mmHg 56%
    10:00 +39°C° 0 mm 5 mps 750 mmHg 53%
    11:00 +40°C° 0 mm 5 mps 750 mmHg 50%
    12:00 +40°C° 0 mm 6 mps 750 mmHg 48%
    13:00 +40°C° 0 mm 6 mps 749 mmHg 49%
    14:00 +40°C° 0 mm 6 mps 749 mmHg 50%
    15:00 +39°C° 0 mm 7 mps 748 mmHg 51%
    16:00 +38°C° 0 mm 6 mps 748 mmHg 55%
    17:00 +36°C° 0 mm 6 mps 748 mmHg 59%
    18:00 +35°C° 0 mm 6 mps 748 mmHg 63%
    19:00 +35°C° 0 mm 5 mps 749 mmHg 67%
    20:00 +34°C° 0 mm 5 mps 749 mmHg 70%
    21:00 +33°C° 0 mm 5 mps 750 mmHg 74%
    22:00 +33°C° 0 mm 5 mps 750 mmHg 75%
    23:00 +33°C° 0 mm 5 mps 750 mmHg 76%
    Show more